DateTimeUTC,F1_A11,F1_S11,BsB_S11,BsG_S11,BsR_S11,BbsB_S11,BbsG_S11,BbsR_S11,BaB_A11,BaG_A11,BaR_A11,Tu_S11,T_S11,Uu_S11,U_S11,P_S11,T1_A11
2021-02-20T17:00:00Z,00000200,21000000,,,,,,,-000.50,-000.77,-000.05,17.2,24.5,,00.0,0633.0,31.0
2021-02-20T17:01:00Z,00000200,21000000,,,,,,,-000.00,0000.28,-000.05,17.2,24.5,,00.0,0633.0,31.0
2021-02-20T17:02:00Z,00000200,21000000,,,,,,,0000.60,0000.30,0000.38,17.2,24.5,,00.0,0633.0,31.0
2021-02-20T17:03:00Z,00000200,61000000,,,,,,,-000.15,-000.07,-000.12,17.2,24.5,,00.0,0633.0,31.0
2021-02-20T17:04:00Z,00000200,41000000,-000.54,0000.10,0000.09,0000.14,0000.31,-000.06,0000.01,0000.17,0000.09,17.5,24.4,,00.0,0633.8,31.0
2021-02-20T17:05:00Z,00000200,01000000,0000.23,-000.35,-000.14,-000.45,-000.10,-000.16,0000.08,-000.16,0000.01,17.6,24.4,,00.0,0633.9,31.0
2021-02-20T17:06:00Z,00000200,01000000,-000.20,0000.06,0000.16,0000.41,-000.09,0000.22,-000.08,0000.63,0000.10,17.6,24.4,,00.0,0633.9,31.1
2021-02-20T17:07:00Z,00000200,01000000,0000.02,0000.01,0000.21,0000.19,-000.12,0000.02,0000.22,-000.32,0000.01,17.6,24.4,,00.0,0633.9,31.0
2021-02-20T17:08:00Z,00000200,01000000,-000.26,-000.24,-000.09,-000.16,-000.14,0000.09,-000.13,-000.15,-000.38,17.6,24.4,,00.0,0634.0,31.0
2021-02-20T17:09:00Z,00000200,01000000,-000.06,-000.26,0000.27,0000.27,-000.06,0000.01,0000.02,0000.18,0000.21,17.6,24.4,,00.0,0634.0,31.0
2021-02-20T17:10:00Z,00000200,01000000,0000.18,-000.09,0000.00,-000.46,0000.10,0000.07,0000.11,-000.11,-000.20,17.6,24.4,,00.0,0634.0,31.0
2021-02-20T17:11:00Z,00000200,01000000,-000.19,-000.29,-000.03,-000.36,-000.13,0000.15,-000.31,-000.32,0000.28,17.6,24.4,,00.0,0634.0,31.0
2021-02-20T17:12:00Z,00000200,01000000,0000.05,0000.06,0000.21,-000.33,0000.02,0000.24,-000.03,0000.21,-000.32,17.5,24.3,,00.0,0634.0,31.0
2021-02-20T17:13:00Z,00000200,01000000,-000.21,-000.35,0000.02,-000.46,0000.34,0000.33,-000.16,0000.03,0000.02,17.5,24.4,,00.0,0634.0,31.0
2021-02-20T17:14:00Z,00000200,01000000,-000.34,0000.02,-000.17,-000.06,-000.00,0000.13,-000.09,-000.35,0000.00,17.5,24.3,,00.0,0634.0,31.0
2021-02-20T17:15:00Z,00000200,01000000,0000.53,-000.12,0000.06,0000.18,0000.19,0000.10,0000.31,0000.03,-000.05,17.5,24.3,,00.0,0634.0,31.0
2021-02-20T17:16:00Z,00000200,01000000,0000.10,0000.01,0000.01,-000.09,0000.17,-000.13,0000.03,0000.33,0000.03,17.5,24.3,,00.0,0634.0,31.0
2021-02-20T17:17:00Z,00000200,01000000,0000.05,-000.14,0000.10,0000.37,-000.04,-000.12,-000.09,-000.09,0000.00,17.5,24.3,,00.0,0634.1,31.0
2021-02-20T17:18:00Z,00000200,01000000,-000.07,0000.03,0000.13,0000.23,0000.15,0000.28,0000.17,0000.08,0000.16,17.5,24.3,,00.0,0634.1,31.0
2021-02-20T17:19:00Z,00000200,01000000,-000.03,0000.02,-000.14,-000.22,-000.04,-000.00,-000.16,0000.00,-000.08,17.4,24.3,,00.0,0634.1,31.0
2021-02-20T17:20:00Z,00000200,01000000,0000.01,-000.22,-000.09,0000.06,0000.05,0000.03,-000.22,-000.12,0000.30,17.4,24.3,,00.0,0634.1,31.0
2021-02-20T17:21:00Z,00000200,01000000,0000.23,-000.08,-000.06,-000.04,-000.04,-000.14,0000.44,0000.11,-000.05,17.4,24.3,,00.0,0634.1,31.0
2021-02-20T17:22:00Z,00000200,01000000,0000.17,-000.19,0000.08,0000.66,0000.41,0000.37,-000.13,0000.01,0000.00,17.4,24.3,,00.0,0634.1,31.0
2021-02-20T17:23:00Z,00000200,01000000,0000.05,-000.38,0000.22,-000.01,0000.06,0000.23,-000.15,0000.21,-000.25,17.4,24.2,,00.0,0634.0,31.0
2021-02-20T17:24:00Z,00000200,01000000,0000.02,0000.05,-000.01,-000.16,0000.02,0000.06,0000.31,-000.05,-000.14,17.4,24.2,,00.0,0634.1,31.0
2021-02-20T17:25:00Z,00000200,01000000,-000.52,-000.13,0000.24,-000.08,0000.18,0000.08,0000.13,-000.14,0000.21,17.4,24.2,,00.0,0634.1,31.0
2021-02-20T17:26:00Z,00000200,01000000,0000.31,0000.04,-000.11,0000.01,-000.11,-000.19,-000.15,-000.04,0000.11,17.4,24.2,,00.0,0634.1,31.0
2021-02-20T17:27:00Z,00000200,01000000,0000.34,-000.08,0000.14,-000.04,0000.09,0000.40,-000.19,0000.03,-000.05,17.3,24.2,,00.0,0634.1,31.0
2021-02-20T17:28:00Z,00000200,01000000,-000.32,-000.21,-000.09,-000.11,0000.31,-000.18,-000.01,-000.15,0000.12,17.3,24.2,,00.0,0634.1,31.0
2021-02-20T17:29:00Z,00000200,01000000,0000.17,-000.11,0000.21,-000.06,0000.14,0000.07,0000.13,0000.20,-000.19,17.3,24.2,,00.0,0634.1,31.0
2021-02-20T17:30:00Z,00000200,01000000,-000.04,0000.02,0000.17,-000.08,0000.07,0000.09,-000.32,-000.59,-000.39,17.3,24.2,,00.0,0634.2,31.0
2021-02-20T17:31:00Z,00000200,01000000,0000.18,-000.34,-000.03,-000.56,-000.07,-000.09,0000.06,0000.99,0000.48,17.3,24.2,,00.0,0634.2,31.0
2021-02-20T17:32:00Z,00000200,01000000,0000.06,0000.03,0000.31,0000.29,0000.03,-000.03,0000.29,-000.75,-000.30,17.4,24.2,,00.0,0634.2,31.0
2021-02-20T17:33:00Z,00000200,01000000,0000.36,-000.07,0000.21,0000.41,0000.03,0000.13,0000.20,0000.63,0000.68,17.5,24.2,,00.0,0634.2,31.0
2021-02-20T17:34:00Z,00000200,01000000,0000.33,-000.11,-000.12,-000.42,0000.14,-000.05,-000.20,0000.01,-000.10,17.6,24.3,,00.0,0634.2,31.0
2021-02-20T17:35:00Z,00000200,01000000,0000.16,0000.08,0000.22,0000.24,0000.31,0000.09,0000.38,-000.46,-000.01,17.6,24.3,,00.0,0634.2,31.0
2021-02-20T17:36:00Z,00000200,01000000,0000.19,0000.04,0000.06,0000.14,-000.11,-000.11,-000.45,0000.09,-000.14,17.7,24.3,,00.0,0634.2,31.0
2021-02-20T17:37:00Z,00000200,01000000,-000.39,0000.10,0000.19,-000.33,0000.05,0000.10,0000.10,-000.05,-000.08,17.7,24.3,,00.0,0634.2,31.0
2021-02-20T17:38:00Z,00000200,01000000,0000.10,-000.33,0000.21,-000.28,0000.08,-000.04,0000.12,-000.08,-000.19,17.6,24.3,,00.0,0634.2,31.0
2021-02-20T17:39:00Z,00000200,01000000,0000.13,0000.03,-000.10,-000.20,-000.03,0000.02,-000.14,-000.01,0000.10,17.6,24.3,,00.0,0634.2,31.0
2021-02-20T17:40:00Z,00000200,01000000,-000.73,0000.04,-000.01,-000.13,0000.19,-000.04,0000.14,0000.26,0000.36,17.6,24.3,,00.0,0634.3,31.0
2021-02-20T17:41:00Z,00000200,01000000,-000.47,-000.32,-000.17,0000.04,-000.02,-000.08,-000.04,-000.41,-000.48,17.6,24.3,,00.0,0634.3,31.0
2021-02-20T17:42:00Z,00000200,01000000,-000.10,-000.11,0000.10,0000.06,-000.04,0000.19,-000.48,-000.00,0000.01,17.6,24.3,,00.0,0634.3,31.0
2021-02-20T17:43:00Z,00000200,01000000,-000.00,0000.14,0000.13,-000.05,-000.02,0000.10,0000.03,0000.34,0000.13,17.6,24.3,,00.0,0634.3,31.0
2021-02-20T17:44:00Z,00000200,01000000,0000.19,0000.01,0000.01,0000.00,0000.05,-000.05,-000.42,-000.18,0000.15,17.5,24.3,,00.0,0634.4,31.0
2021-02-20T17:45:00Z,00000200,01000000,-000.02,-000.01,-000.24,0000.02,-000.05,0000.08,0000.34,-000.37,-000.20,17.5,24.3,,00.0,0634.4,31.0
2021-02-20T17:46:00Z,00000200,01000000,0000.00,0000.02,0000.04,0000.34,0000.13,0000.15,-000.05,0000.33,-000.35,17.5,24.3,,00.0,0634.4,31.0
2021-02-20T17:47:00Z,00000200,01000000,-000.23,-000.26,0000.18,-000.13,0000.13,0000.09,0000.16,0000.09,0000.49,17.6,24.3,,00.0,0634.4,31.0
2021-02-20T17:48:00Z,00000200,01000000,-000.10,-000.23,0000.03,0000.08,0000.02,0000.01,-000.13,-000.46,-000.30,17.6,24.3,,00.0,0634.4,31.0
2021-02-20T17:49:00Z,00000200,01000000,0000.36,-000.28,-000.18,-000.06,-000.14,-000.05,-000.17,0000.06,-000.31,17.6,24.3,,00.0,0634.4,31.0
2021-02-20T17:50:00Z,00000200,01000000,-000.24,-000.11,-000.05,0000.29,0000.09,-000.00,0000.26,0000.35,0000.31,17.6,24.3,,00.0,0634.4,31.0
2021-02-20T17:51:00Z,00000200,01000000,-000.10,-000.16,-000.23,-000.27,-000.11,0000.04,-000.03,-000.41,-000.10,17.6,24.3,,00.0,0634.5,31.0
2021-02-20T17:52:00Z,00000200,01000000,0000.23,-000.12,0000.02,0000.33,0000.11,0000.11,0000.21,0000.13,-000.06,17.6,24.3,,00.0,0634.5,31.0
2021-02-20T17:53:00Z,00000200,01000000,-000.71,0000.01,0000.22,0000.27,-000.06,0000.23,-000.57,-000.25,0000.19,17.6,24.3,,00.0,0634.5,31.0
2021-02-20T17:54:00Z,00000200,01000000,-000.22,-000.15,-000.01,-000.03,-000.12,0000.17,0000.04,-000.07,-000.14,17.6,24.3,,00.0,0634.5,31.0
2021-02-20T17:55:00Z,00000200,01000000,0000.36,0000.16,-000.07,-000.00,-000.02,0000.08,0000.16,-000.23,0000.25,17.5,24.3,,00.0,0634.5,31.0
2021-02-20T17:56:00Z,00000200,01000000,0000.21,-000.22,0000.04,0000.07,0000.07,0000.12,-000.21,0000.39,0000.11,17.5,24.3,,00.0,0634.5,31.0
2021-02-20T17:57:00Z,00000200,41000000,,,,,,,0000.34,0000.44,0000.06,17.5,24.4,,00.0,0634.6,31.0
2021-02-20T17:58:00Z,00000200,61000000,,,,,,,-000.10,-000.15,-000.46,17.2,24.4,,00.0,0633.6,31.0
2021-02-20T17:59:00Z,00000200,21000000,,,,,,,-000.25,-000.69,-000.20,17.2,24.5,,00.0,0633.6,31.0
